Time,TemperatureF,DewpointF,PressureIn,WindDirection,WindDirectionDegrees,WindSpeedMPH,WindSpeedGustMPH,Humidity,HourlyPrecipIn,Conditions,Clouds,dailyrainin,SoftwareType,DateUTC
2013-03-11 00:00:00,51.5,40.1,30.22,WNW,286,0.0,1.0,65,0.00,,---,0.00,VWS V14.00,2013-03-11 07:00:00,
2013-03-11 00:01:00,51.5,40.1,30.22,WNW,286,0.0,1.0,65,0.00,,---,0.00,VWS V14.00,2013-03-11 07:01:00,
2013-03-11 00:30:00,51.4,42.0,30.22,WNW,286,0.0,0.0,70,0.00,,---,0.00,VWS V14.00,2013-03-11 07:30:00,
2013-03-11 00:31:00,51.4,42.0,30.22,WNW,286,0.0,0.0,70,0.00,,---,0.00,VWS V14.00,2013-03-11 07:31:00,
2013-03-11 01:00:00,50.7,40.9,30.22,WNW,286,0.0,1.0,69,0.00,,---,0.00,VWS V14.00,2013-03-11 08:00:00,
2013-03-11 01:01:00,50.7,40.9,30.22,WNW,286,0.0,1.0,69,0.00,,---,0.00,VWS V14.00,2013-03-11 08:01:00,
2013-03-11 01:30:00,50.4,41.7,30.22,WNW,286,0.0,1.0,72,0.00,,---,0.00,VWS V14.00,2013-03-11 08:30:00,
2013-03-11 02:00:00,50.3,43.0,30.23,WNW,286,0.0,0.0,76,0.00,,---,0.00,VWS V14.00,2013-03-11 09:00:00,
2013-03-11 02:01:00,50.3,43.0,30.23,WNW,286,0.0,0.0,76,0.00,,---,0.00,VWS V14.00,2013-03-11 09:01:00,
2013-03-11 02:30:00,50.5,44.6,30.21,WNW,286,0.0,0.0,80,0.00,,---,0.00,VWS V14.00,2013-03-11 09:30:00,
2013-03-11 02:31:00,50.5,44.6,30.21,WNW,286,0.0,0.0,80,0.00,,---,0.00,VWS V14.00,2013-03-11 09:31:00,
2013-03-11 03:00:00,49.4,40.4,30.21,North,11,0.0,2.0,71,0.00,,---,0.00,VWS V14.00,2013-03-11 10:00:00,
2013-03-11 03:01:00,49.4,40.4,30.21,North,11,0.0,2.0,71,0.00,,---,0.00,VWS V14.00,2013-03-11 10:01:00,
2013-03-11 03:30:00,49.9,39.8,30.20,NNE,27,1.0,2.0,68,0.00,,---,0.00,VWS V14.00,2013-03-11 10:30:00,
2013-03-11 03:31:00,49.9,39.8,30.20,NNE,27,1.0,2.0,68,0.00,,---,0.00,VWS V14.00,2013-03-11 10:31:00,
2013-03-11 04:00:00,50.5,39.2,30.19,NE,35,1.0,2.0,65,0.00,,---,0.00,VWS V14.00,2013-03-11 11:00:00,
2013-03-11 04:01:00,50.5,39.2,30.19,NE,35,1.0,2.0,65,0.00,,---,0.00,VWS V14.00,2013-03-11 11:01:00,
2013-03-11 04:30:00,49.8,38.5,30.19,NE,37,0.0,2.0,65,0.00,,---,0.00,VWS V14.00,2013-03-11 11:30:00,
2013-03-11 04:31:00,49.8,38.5,30.19,NE,37,0.0,2.0,65,0.00,,---,0.00,VWS V14.00,2013-03-11 11:31:00,
2013-03-11 05:00:00,49.4,38.1,30.18,NE,37,0.0,2.0,65,0.00,,---,0.00,VWS V14.00,2013-03-11 12:00:00,
2013-03-11 05:01:00,49.4,38.1,30.18,NE,37,0.0,2.0,65,0.00,,---,0.00,VWS V14.00,2013-03-11 12:01:00,
2013-03-11 05:30:00,49.7,35.5,30.19,NE,38,1.0,2.0,58,0.00,,---,0.00,VWS V14.00,2013-03-11 12:30:00,
2013-03-11 05:31:00,49.7,35.5,30.19,NE,38,1.0,2.0,58,0.00,,---,0.00,VWS V14.00,2013-03-11 12:31:00,
2013-03-11 06:00:00,49.6,35.9,30.19,NE,38,0.0,2.0,59,0.00,,---,0.00,VWS V14.00,2013-03-11 13:00:00,
2013-03-11 06:01:00,49.6,35.9,30.19,NE,38,0.0,2.0,59,0.00,,---,0.00,VWS V14.00,2013-03-11 13:01:00,
2013-03-11 06:30:00,48.6,35.8,30.19,NE,38,0.0,1.0,61,0.00,,---,0.00,VWS V14.00,2013-03-11 13:30:00,
2013-03-11 06:31:00,48.6,35.8,30.19,NE,38,0.0,1.0,61,0.00,,---,0.00,VWS V14.00,2013-03-11 13:31:00,
2013-03-11 07:00:00,48.5,35.3,30.20,NE,38,0.0,1.0,60,0.00,,---,0.00,VWS V14.00,2013-03-11 14:00:00,
2013-03-11 07:01:00,48.5,35.3,30.20,NE,38,0.0,1.0,60,0.00,,---,0.00,VWS V14.00,2013-03-11 14:01:00,
2013-03-11 07:30:00,48.5,36.1,30.20,NE,38,0.0,1.0,62,0.00,,---,0.00,VWS V14.00,2013-03-11 14:30:00,
2013-03-11 07:31:00,48.5,36.1,30.20,NE,38,0.0,1.0,62,0.00,,---,0.00,VWS V14.00,2013-03-11 14:31:00,
2013-03-11 08:00:00,49.4,36.5,30.21,NE,38,0.0,0.0,61,0.00,,---,0.00,VWS V14.00,2013-03-11 15:00:00,
2013-03-11 08:01:00,49.4,36.5,30.21,NE,38,0.0,0.0,61,0.00,,---,0.00,VWS V14.00,2013-03-11 15:01:00,
2013-03-11 08:30:00,54.7,40.7,30.22,NE,38,0.0,1.0,59,0.00,,---,0.00,VWS V14.00,2013-03-11 15:30:00,
2013-03-11 08:31:00,54.7,40.7,30.22,NE,38,0.0,1.0,59,0.00,,---,0.00,VWS V14.00,2013-03-11 15:31:00,
2013-03-11 09:00:00,56.8,46.0,30.22,NE,38,0.0,1.0,67,0.00,,---,0.00,VWS V14.00,2013-03-11 16:00:00,
2013-03-11 09:01:00,56.8,46.0,30.22,NE,38,0.0,1.0,67,0.00,,---,0.00,VWS V14.00,2013-03-11 16:01:00,
2013-03-11 09:30:00,57.6,48.3,30.22,NE,38,2.0,2.0,71,0.00,,---,0.00,VWS V14.00,2013-03-11 16:30:00,
2013-03-11 09:31:00,57.6,48.3,30.22,NE,38,2.0,2.0,71,0.00,,---,0.00,VWS V14.00,2013-03-11 16:31:00,
2013-03-11 10:00:00,58.8,48.7,30.22,NE,36,0.0,2.0,69,0.00,,---,0.00,VWS V14.00,2013-03-11 17:00:00,
2013-03-11 10:01:00,58.8,48.7,30.22,NE,36,0.0,2.0,69,0.00,,---,0.00,VWS V14.00,2013-03-11 17:01:00,
2013-03-11 10:30:00,59.6,49.4,30.21,NNE,32,1.0,2.0,69,0.00,,---,0.00,VWS V14.00,2013-03-11 17:30:00,
2013-03-11 10:31:00,59.6,49.4,30.21,NNE,32,1.0,2.0,69,0.00,,---,0.00,VWS V14.00,2013-03-11 17:31:00,
2013-03-11 11:00:00,60.1,50.7,30.21,NW,310,1.0,3.0,71,0.00,,---,0.00,VWS V14.00,2013-03-11 18:00:00,
2013-03-11 11:01:00,60.1,50.7,30.21,NW,310,1.0,3.0,71,0.00,,---,0.00,VWS V14.00,2013-03-11 18:01:00,
2013-03-11 11:30:00,60.4,51.3,30.21,WNW,288,2.0,4.0,72,0.00,,---,0.00,VWS V14.00,2013-03-11 18:30:00,
2013-03-11 11:31:00,60.4,51.3,30.21,WNW,288,2.0,4.0,72,0.00,,---,0.00,VWS V14.00,2013-03-11 18:31:00,
2013-03-11 12:00:00,62.7,53.5,30.20,WNW,288,1.0,3.0,72,0.00,,---,0.00,VWS V14.00,2013-03-11 19:00:00,
2013-03-11 12:01:00,62.7,53.5,30.20,WNW,288,1.0,3.0,72,0.00,,---,0.00,VWS V14.00,2013-03-11 19:01:00,
2013-03-11 12:30:00,64.4,54.8,30.19,WNW,288,0.0,3.0,71,0.00,,---,0.00,VWS V14.00,2013-03-11 19:30:00,
2013-03-11 12:31:00,64.4,54.8,30.19,WNW,288,0.0,3.0,71,0.00,,---,0.00,VWS V14.00,2013-03-11 19:31:00,
2013-03-11 13:00:00,65.6,55.6,30.18,WNW,288,1.0,3.0,70,0.00,,---,0.00,VWS V14.00,2013-03-11 20:00:00,
2013-03-11 13:01:00,65.6,55.6,30.18,WNW,288,1.0,3.0,70,0.00,,---,0.00,VWS V14.00,2013-03-11 20:01:00,
2013-03-11 13:30:00,63.6,55.9,30.16,West,279,0.0,3.0,76,0.00,,---,0.00,VWS V14.00,2013-03-11 20:30:00,
2013-03-11 13:31:00,63.6,55.9,30.16,West,279,0.0,3.0,76,0.00,,---,0.00,VWS V14.00,2013-03-11 20:31:00,
2013-03-11 14:00:00,63.8,55.7,30.15,West,278,2.0,3.0,75,0.00,,---,0.00,VWS V14.00,2013-03-11 21:00:00,
2013-03-11 14:01:00,63.8,55.7,30.15,West,278,2.0,3.0,75,0.00,,---,0.00,VWS V14.00,2013-03-11 21:01:00,
2013-03-11 14:30:00,62.4,55.1,30.14,WNW,290,2.0,7.0,77,0.00,,---,0.00,VWS V14.00,2013-03-11 21:30:00,
2013-03-11 14:31:00,62.4,55.1,30.14,WNW,290,2.0,7.0,77,0.00,,---,0.00,VWS V14.00,2013-03-11 21:31:00,
2013-03-11 15:00:00,63.2,56.2,30.13,West,273,2.0,6.0,78,0.00,,---,0.00,VWS V14.00,2013-03-11 22:00:00,
2013-03-11 15:01:00,63.2,56.2,30.13,West,273,2.0,6.0,78,0.00,,---,0.00,VWS V14.00,2013-03-11 22:01:00,
2013-03-11 15:30:00,63.4,56.4,30.12,West,270,2.0,6.0,78,0.00,,---,0.00,VWS V14.00,2013-03-11 22:30:00,
2013-03-11 15:31:00,63.4,56.4,30.12,West,270,2.0,6.0,78,0.00,,---,0.00,VWS V14.00,2013-03-11 22:31:00,
2013-03-11 16:00:00,63.4,56.4,30.11,West,279,4.0,6.0,78,0.00,,---,0.00,VWS V14.00,2013-03-11 23:00:00,
2013-03-11 16:30:00,62.9,56.3,30.10,West,275,5.0,5.0,79,0.00,,---,0.00,VWS V14.00,2013-03-11 23:30:00,
2013-03-11 16:31:00,62.9,56.3,30.10,West,275,5.0,5.0,79,0.00,,---,0.00,VWS V14.00,2013-03-11 23:31:00,
2013-03-11 17:00:00,61.6,55.7,30.09,West,277,2.0,6.0,81,0.00,,---,0.00,VWS V14.00,2013-03-12 00:00:00,
2013-03-11 17:01:00,61.6,55.7,30.09,West,277,2.0,6.0,81,0.00,,---,0.00,VWS V14.00,2013-03-12 00:01:00,
2013-03-11 17:30:00,59.5,55.0,30.09,WNW,301,3.0,8.0,85,0.00,,---,0.00,VWS V14.00,2013-03-12 00:30:00,
2013-03-11 17:31:00,59.5,55.0,30.09,WNW,301,3.0,8.0,85,0.00,,---,0.00,VWS V14.00,2013-03-12 00:31:00,
2013-03-11 18:00:00,58.5,54.3,30.09,West,281,4.0,10.0,86,0.00,,---,0.00,VWS V14.00,2013-03-12 01:00:00,
2013-03-11 18:01:00,58.5,54.3,30.09,West,281,4.0,10.0,86,0.00,,---,0.00,VWS V14.00,2013-03-12 01:01:00,
2013-03-11 18:30:00,57.8,54.0,30.09,WSW,256,3.0,9.0,87,0.00,,---,0.00,VWS V14.00,2013-03-12 01:30:00,
2013-03-11 18:31:00,57.8,54.0,30.09,WSW,256,3.0,9.0,87,0.00,,---,0.00,VWS V14.00,2013-03-12 01:31:00,
2013-03-11 19:00:00,57.3,53.5,30.09,West,265,3.0,6.0,87,0.00,,---,0.00,VWS V14.00,2013-03-12 02:00:00,
2013-03-11 19:01:00,57.3,53.5,30.09,West,265,3.0,6.0,87,0.00,,---,0.00,VWS V14.00,2013-03-12 02:01:00,
2013-03-11 19:30:00,56.6,53.4,30.09,West,265,2.0,4.0,89,0.00,,---,0.00,VWS V14.00,2013-03-12 02:30:00,
2013-03-11 19:31:00,56.6,53.4,30.09,West,265,2.0,4.0,89,0.00,,---,0.00,VWS V14.00,2013-03-12 02:31:00,
2013-03-11 20:00:00,56.5,53.6,30.10,West,269,2.0,7.0,90,0.00,,---,0.00,VWS V14.00,2013-03-12 03:00:00,
2013-03-11 20:01:00,56.5,53.6,30.10,West,269,2.0,7.0,90,0.00,,---,0.00,VWS V14.00,2013-03-12 03:01:00,
2013-03-11 20:30:00,56.0,53.1,30.10,West,263,0.0,4.0,90,0.00,,---,0.00,VWS V14.00,2013-03-12 03:30:00,
2013-03-11 20:31:00,56.0,53.1,30.10,West,263,0.0,4.0,90,0.00,,---,0.00,VWS V14.00,2013-03-12 03:31:00,
2013-03-11 21:00:00,55.2,52.3,30.12,West,263,0.0,0.0,90,0.00,,---,0.00,VWS V14.00,2013-03-12 04:00:00,
2013-03-11 21:01:00,55.2,52.3,30.12,West,263,0.0,0.0,90,0.00,,---,0.00,VWS V14.00,2013-03-12 04:01:00,
2013-03-11 21:30:00,54.8,51.6,30.13,West,263,0.0,0.0,89,0.00,,---,0.00,VWS V14.00,2013-03-12 04:30:00,
2013-03-11 21:31:00,54.8,51.6,30.13,West,263,0.0,0.0,89,0.00,,---,0.00,VWS V14.00,2013-03-12 04:31:00,
2013-03-11 22:00:00,54.0,51.7,30.14,West,273,1.0,5.0,92,0.00,,---,0.00,VWS V14.00,2013-03-12 05:00:00,
2013-03-11 22:01:00,54.0,51.7,30.14,West,273,1.0,5.0,92,0.00,,---,0.00,VWS V14.00,2013-03-12 05:01:00,
2013-03-11 22:30:00,53.7,51.7,30.14,West,273,0.0,2.0,93,0.00,,---,0.00,VWS V14.00,2013-03-12 05:30:00,
2013-03-11 22:31:00,53.7,51.7,30.14,West,273,0.0,2.0,93,0.00,,---,0.00,VWS V14.00,2013-03-12 05:31:00,
2013-03-11 23:00:00,53.6,51.9,30.14,West,273,0.0,1.0,94,0.00,,---,0.00,VWS V14.00,2013-03-12 06:00:00,
2013-03-11 23:01:00,53.6,51.9,30.14,West,273,0.0,1.0,94,0.00,,---,0.00,VWS V14.00,2013-03-12 06:01:00,
2013-03-11 23:30:00,53.3,51.6,30.14,West,273,0.0,2.0,94,0.00,,---,0.00,VWS V14.00,2013-03-12 06:30:00,
2013-03-11 23:31:00,53.3,51.6,30.14,West,273,0.0,2.0,94,0.00,,---,0.00,VWS V14.00,2013-03-12 06:31:00,